Location: Laverne
(36.7100°N, 99.8930°W)
Time: 18:06:19
(UTC-06:00)

Cosmos 1943 Rocket - Pass Details

Date: 19 October 2017
Orbit: 811 x 845 km, 71.0° (Epoch: 19 November)

Event Time Altitude Azimuth Distance (km) Brightness Sun altitude
Exits shadow 05:29:30 27° 356° (N) 1,530 3.5 -29.0°
Drops below altitude 10° 05:32:09 10° 10° (N) 2,423 4.8 -28.5°
Sets 05:34:41 0° 17° (NNE) 3,365 5.6 -28.0°
